ANGELS

Last updated on Thu Nov 21 2024 00:02:37 GMT+0000 (Coordinated Universal Time)

1 44876U 19092D 24325.55570898 .00014391 00000+0 47314-3 0 9992 2 44876 97.4656 154.7624 0009901 120.2400 239.9823 15.31600322273253
UTC large
Height (km)
Speed (km/s)
/
Latitude / Longitude
Inclination (degrees)
Orbital Period (minutes)
Azimuth
Elevation
Range (km)
Doppler Factor

Next 0 passes for location: London (51.5072 / 0.1276)

Sorry there are no passes over London.